Regional Weather Roundup
Issued by NWS

Home | Current Version | Previous Version | Text Only | Print | Product List | Glossary Off
Versions: 1 2 3 4 5 6 7 8 9 10 11 12 13 14 15 16 17 18 19 20 21 22 23 24 25 26 27 28 29 30 31 32 33 34 35 36 37 38 39 40 41 42 43 44 45 46 47 48 49 50

000
ASUS43 KMKX 231511
RWRWI

WISCONSIN REGIONAL WEATHER ROUNDUP
NATIONAL WEATHER SERVICE MILWAUKEE/SULLIVAN WI
1000 AM CDT THU MAR 23 2017

NOTE: "FAIR" INDICATES FEW OR NO CLOUDS BELOW 12,000 FEET WITH NO
SIGNIFICANT WEATHER AND/OR OBSTRUCTIONS TO VISIBILITY.

WIZ001-002-006>008-014>016-023>028-231600-
NORTHWEST WISCONSIN

CITY           SKY/WX    TMP DP  RH WIND       PRES   REMARKS
SUPERIOR ARPT  CLOUDY    35  26  69 S5        30.10F WCI  31
ASHLAND        CLOUDY    33  25  72 S9        30.13F WCI  25
HAYWARD        CLOUDY    34  22  61 S10G21    30.11F WCI  26
SIREN          CLOUDY    34  24  66 S7        30.09F WCI  28
CUMBERLAND     CLOUDY    32  21  64 SE14      30.12F WCI  22
RICE LAKE      CLOUDY    32  23  69 SE15      30.15F WCI  22
CHETEK         CLOUDY    32  22  67 SE12G20   30.15F WCI  23
LADYSMITH      CLOUDY    32  22  65 SE14G20   30.18F WCI  22
EAU CLAIRE     CLOUDY    35  19  52 SE13G21   30.16F WCI  26
MENOMONIE      CLOUDY    36  21  54 SE15G21   30.15F WCI  27
NEW RICHMOND   CLOUDY    37  20  52 SE13G21   30.10F WCI  28
OSCEOLA        CLOUDY    38  22  52 SE15G22   30.12F WCI  29
$$

WIZ003>005-009-010-017-018-231600-
NORTH CENTRAL WISCONSIN

CITY           SKY/WX    TMP DP  RH WIND       PRES   REMARKS
MANITOWISH WTR CLOUDY    28  24  86 S13       30.16F WCI  17
ARBOR VITAE    CLOUDY    30  24  78 S14G22    30.17F WCI  19
WOODRUFF       CLOUDY    30  24  78 S14G22    30.17F WCI  19
RHINELANDER    CLOUDY    28  22  78 S10       30.22F WCI  19
EAGLE RIVER    CLOUDY    27  22  81 S8        30.21F WCI  19
LAND O LAKES   CLOUDY    27  24  86 S12G18    30.22F WCI  17
PHILLIPS       CLOUDY    30  20  66 SE16G23   30.16F WCI  19
TOMAHAWK       CLOUDY    27  21  77 SE6       30.21F WCI  21
MEDFORD        CLOUDY    30  19  65 SE16G23   30.19F WCI  18
MERRILL        CLOUDY    28  21  74 SE10      30.25F WCI  19
$$

WIZ029-030-035-036-043>047-231600-
CENTRAL WISCONSIN

CITY           SKY/WX    TMP DP  RH WIND       PRES   REMARKS
WAUSAU         CLOUDY    30  20  66 SE13      30.25F WCI  20
MOSINEE        CLOUDY    28  21  74 SE10G18   30.26F WCI  19
MARSHFIELD     CLOUDY    31  19  61 SE16G22   30.21F WCI  20
STEVENS POINT  CLOUDY    29  20  69 SE8       30.28F WCI  21
WAUPACA        CLOUDY    35  25  66 SE9       30.32F WCI  27
WAUTOMA        CLOUDY    35  23  61 SE7G16    30.31F WCI  29
WISC RAPIDS    CLOUDY    33  22  63 SE9       30.26F WCI  25
CAMP DOUGLAS   CLOUDY    34  21  60 SE13      30.24F WCI  25
$$

WIZ011>013-019>022-031-037>040-048>050-231600-
NORTHEAST WISCONSIN

CITY           SKY/WX    TMP DP  RH WIND       PRES   REMARKS
ANTIGO         CLOUDY    26  22  85 SE8       30.27F WCI  17
SHAWANO        CLOUDY    32  25  76 S3        30.34F
OCONTO         CLOUDY    32  26  78 S5        30.36F WCI  27
STURGEON BAY   CLOUDY    35  26  69 S12       30.37F WCI  27
GREEN BAY      CLOUDY    34  27  75 S9        30.35F WCI  27
MANITOWOC      CLOUDY    35  25  66 S20       30.38F WCI  24
APPLETON       CLOUDY    34  21  60 SE13      30.32F WCI  25
CLINTONVILLE   CLOUDY    32  25  74 E6        30.32F WCI  26
OSHKOSH        CLOUDY    33  23  66 S12       30.33F WCI  24
$$

WIZ032>034-041-042-053>061-231600-
SOUTHWEST WISCONSIN

CITY           SKY/WX    TMP DP  RH WIND       PRES   REMARKS
LA CROSSE      CLOUDY    38  22  52 SE14      30.20F WCI  30
SPARTA         CLOUDY    37  21  53 SE8G17    30.23F WCI  31
VIROQUA        CLOUDY    33  21  62 SE18G24   30.20F WCI  22
BOSCOBEL       CLOUDY    37  22  54 SE6       30.26F WCI  32
PRAIRIE DU CHI CLOUDY    37  21  51 SE10G20   30.23F WCI  30
PLATTEVILLE    CLOUDY    37  24  60 SE16G22   30.25F WCI  27
$$

WIZ056-057-062-063-064-067-068-231600-
SOUTH CENTRAL WISCONSIN

CITY           SKY/WX    TMP DP  RH WIND       PRES   REMARKS
REEDSBURG      CLOUDY    34  22  61 SE8       30.26F WCI  27
BARABOO/DELLS  CLOUDY    34  22  61 SE10      30.27F WCI  26
LONE ROCK      CLOUDY    38  22  52 SE13      30.28F WCI  30
MINERAL POINT  CLOUDY    36  23  60 SE15      30.25F WCI  26
MADISON        CLOUDY    35  20  54 S17       30.29F WCI  25
MIDDLETON      CLOUDY    37  24  59 SE10G17   30.29F WCI  29
WATERTOWN      CLOUDY    35  22  60 SE12      30.32F WCI  26
MONROE         CLOUDY    36  23  60 SE21G28   30.29F WCI  24
JANESVILLE     PTSUNNY   37  21  52 SE12G18   30.33F WCI  30
$$

WIZ051-052-058>065-066-070>072-231600-
SOUTHEAST WISCONSIN

CITY           SKY/WX    TMP DP  RH WIND       PRES   REMARKS
MILWAUKEE      CLOUDY    35  22  58 S17G24    30.38F WCI  25
WAUKESHA       PTSUNNY   30  21  69 SE12      30.37F WCI  21
MILWAUKEE/TIMM CLOUDY    34  19  55 SE9       30.39F WCI  26
RACINE         CLOUDY    35  22  58 SE16G24   30.40F WCI  25
KENOSHA        CLOUDY    35  24  64 SE14      30.38F WCI  26
FOND DU LAC    CLOUDY    34  22  61 S16       30.33F WCI  24
SHEBOYGAN      CLOUDY    34  24  67 S14G21    30.36F WCI  25
WEST BEND      CLOUDY    32  27  80 SE8       30.36F WCI  25
JUNEAU         CLOUDY    33  23  65 SE13      30.33F WCI  24
$$

LSZ147-162-231600-
LAKE SUPERIOR

STATION/POSITION TIME  TEMP    WIND        PRES    WAVE
                       AIR SEA DIR/SP/G            HT/PER
                 (UTC) (F)     (DEG/KT/KT) (MB)    (FT/S)
DEVILS ISLAND    1500   32     160/  5/  9 1021.0F
PORT WING        1440   34     180/  8/ 13 1020.0F
SAXON HARBOR     1430   34     190/  8/ 16 1020.7F
$$

LMZ867-665-643>646-231600-
LAKE MICHIGAN

STATION/POSITION TIME  TEMP    WIND        PRES    WAVE
                       AIR SEA DIR/SP/G            HT/PER
                 (UTC) (F)     (DEG/KT/KT) (MB)    (FT/S)
CHAMBERS ISLAND  1440   32     160/  3/  8 1028.4F
NORTHPORT PIER   1440   34     150/  4/  9 1029.1F
SISTER BAY       1421   35     170/ 14/ 17   N/A
KEWAUNEE LAKESHO 1442   35     180/ 17/ 21 1028.3F
SHEBOYGAN LAKESH 1500   35     160/ 22/ 24 1029.0F
PORT WASHINGTON  1430   35     170/ 16/ 20 1029.8F
MILWAUKEE LAKESH 1450   34     160/ 18/ 21   N/A
KENOSHA   LAKESH 1500   33     150/ 21/ 23 1028.8
$$

TC  - TEMPERATURE IN CELSIUS
VSB - VISIBILITY IN STATUTE MILES
WCI - WIND CHILL INDEX
HX  - HEAT INDEX





USA.gov is the U.S. government's official web portal to all federal, state and local government web resources and services.